Regional Weather Roundup
Issued by NWS

Home | Current Version | Previous Version | Text Only | Print | Product List | Glossary On
Versions: 1 2 3 4 5 6 7 8 9 10 11 12 13 14 15 16 17 18 19 20 21 22 23 24 25 26 27 28 29 30 31 32 33 34 35 36 37 38 39 40 41 42 43 44 45 46 47 48 49 50
474
ASCA42 TJSJ 010410
RWRPR
PUERTO RICO/U.S. VIRGIN ISLANDS HOURLY WEATHER ROUNDUP
NATIONAL WEATHER SERVICE SAN JUAN PR
1200 AM AST MON MAY 01 2017

PRZ001>002-007>008-010-010500-
PUERTO RICO

CITY           SKY/WX    TMP DP  RH WIND       PRES   REMARKS
SAN JUAN LMM   MOCLDY    75  75 100 E12       30.08F
PONCE          PTCLDY    73  72  94 E7        30.07S
CEIBA          CLOUDY    75  72  88 NE10      30.09S
$$

VIZ001>002-010500-
U.S. VIRGIN ISLANDS

CITY           SKY/WX    TMP DP  RH WIND       PRES   REMARKS
CHARLOTTE AMA  LGT RAIN  73  73 100 NE9       30.05F
CHRISTIANSTED  MOCLDY    77  72  83 NE12      30.06S
$$

HOURLY WEATHER ROUNDUP FOR THE NEWS MEDIA

CITY           SKY/WX    TMP DP  RH WIND       PRES   REMARKS
ORLANDO        PTCLDY    74  70  87 SE10      30.10F
NEW YORK       CLOUDY    51  48  89 E10       30.17S
NEWARK         CLOUDY    52  45  77 E9        30.16S
CHICAGO        TSTM      46  44  93 NE14      29.53F VSB 1/2
HARTFORD       CLOUDY    47  39  74 SE7       30.24S
BOSTON         CLOUDY    48  40  73 SE8       30.24F
DALLAS         CLEAR     58  32  37 W10G20    29.92R
PHILADELPHIA   CLOUDY    52  49  89 E8        30.12F
LOS ANGELES    CLEAR     61  49  64 W7        30.00R
WASHINGTON DC  PTCLDY    73  62  68 SE6       30.01S



USA.gov is the U.S. government's official web portal to all federal, state and local government web resources and services.